Weather in Marilia

Brazil     22°13′00″S   49°56′48″W
temp.,
°C
wind,
m/s
gust,
m/s
humid.,
%
clouds,
%
prec.,
mm/h
press.,
hPa
HPBL,
m
9 may, sun
sun900:00+14se5139136 0.0 1022389
03:00+14se513912 0.0 1021416
06:00+14se412880 0.0 1021385
09:00+19ese58660 0.0 1023507
12:00+26e33445 0.0 10201336
15:00+29e12315 0.0 10172483
18:00+22se224711 0.0 101720
21:00+19sse395821 0.0 1019172
10 may, mon
mon1000:00+17se411720 0.0 1019336
03:00+15ese3128660 0.0 1019318
06:00+13se26955 0.0 1020132
09:00+20ese47601 0.0 1021414
12:00+28ene333770 0.0 10191333
15:00+30ssw133079 0.0 10152598
18:00+23sse2245100 0.0 101518
21:00+19sse36550 0.0 101894
11 may, tue
tue1100:00+17se22643 0.0 101729
03:00+16se11720 0.0 101611
06:00+15ese11765 0.0 101611
09:00+23ene23525 0.0 1017311
12:00+30nnw133088 0.0 10151874
15:00+31wsw252350 0.0 10113212
18:00+25s113493 0.0 101111
21:00+20ese114339 0.0 101411
12 may, wed
wed1200:00+19ese114773 0.0 101311
03:00+17ese225476 0.0 101213
06:00+15ese116677 0.0 101412
09:00+20ese2260100 0.0 1016230
12:00+25sse1143100 0.0 1014735
15:00+22ssw4557100 0.0 1014494
18:00+21s5866100 0.0 1016681
21:00+16sse249298 0.3 1018174
13 may, thu
thu1300:00+14sse29975 0.0 1018284
03:00+13se3119815 0.0 1018344
06:00+15ese5108588 0.0 1018593
09:00+18ese586521 0.0 1020690
12:00+24ese3441100 0.0 10191227
15:00+26sse22295 0.0 10161854
18:00+19sse22435 0.0 101729
21:00+15se376080 0.0 1019116